Location: Caltech
(34.1382°N, 118.1253°W)
Time: 04:59:50
(UTC-07:00)

Cosmos 1125 Rocket - Visible Passes

Search period start: 21 October 2014 00:00
Search period end: 31 October 2014 00:00
Orbit: 759 x 781 km, 74.0° (Epoch: 20 October)

Date Brightness Start Highest point End Pass type
(mag) Time Alt. Az. Time Alt. Az. Time Alt. Az.
21 Oct 6.4 04:25:08 10° NNE 04:27:25 13° ENE 04:29:41 10° E visible
21 Oct 3.5 06:04:47 10° NNW 06:09:59 68° WSW 06:15:11 10° S visible
21 Oct 3.5 18:56:30 10° S 19:01:34 59° ESE 19:06:40 10° NNE visible
21 Oct 6.3 20:41:19 10° W 20:44:03 14° WNW 20:46:48 10° NNW visible
22 Oct 3.8 05:28:21 10° NNW 05:33:35 68° ENE 05:38:48 10° SSE visible
22 Oct 5.7 20:03:10 10° WSW 20:07:21 24° WNW 20:11:33 10° N visible
23 Oct 4.8 04:52:12 10° N 04:57:05 38° ENE 05:01:57 10° SE visible
23 Oct 4.7 06:35:04 10° NW 06:38:50 20° W 06:42:38 10° SW visible
23 Oct 4.7 19:25:52 10° SW 19:30:46 42° WNW 19:35:41 10° N visible
24 Oct 5.7 04:16:24 10° NNE 04:20:28 22° ENE 04:24:32 10° ESE visible
24 Oct 4.0 05:57:51 10° NW 06:02:37 36° W 06:07:23 10° SSW visible
24 Oct 3.7 18:49:06 10° SSW 18:54:16 76° WNW 18:59:29 10° NNE visible
25 Oct 6.3 03:42:56 13° NE 03:43:45 13° ENE 03:46:09 10° E visible
25 Oct 3.4 05:23:24 26° NNW 05:26:18 66° WSW 05:31:30 10° S visible
25 Oct 6.3 19:57:44 10° W 20:00:23 14° WNW 20:03:02 10° NNW visible
26 Oct 3.7 04:49:51 70° ENE 04:49:54 70° ENE 04:55:08 10° SSE visible
26 Oct 5.3 06:30:21 10° W 06:31:17 10° W 06:32:14 10° WSW visible
26 Oct 5.8 19:19:32 10° WSW 19:23:40 24° WNW 19:27:50 10° N visible
27 Oct 5.5 04:16:05 23° ESE 04:16:05 23° ESE 04:18:18 10° SE visible
27 Oct 5.0 05:56:31 18° WSW 05:56:31 18° WSW 05:58:53 10° SW visible
27 Oct 4.9 18:42:12 10° SW 18:47:04 41° WNW 18:51:58 10° N visible
28 Oct 5.4 05:22:33 16° SSW 05:22:33 16° SSW 05:23:40 10° SSW visible
29 Oct 6.3 19:14:09 10° W 19:16:42 14° WNW 19:19:15 10° NNW visible
30 Oct 5.9 18:35:53 10° WSW 18:39:58 23° WNW 18:44:05 10° NNW visible
